• In Hungary
  • List of Countries
  • For 7 days
  • Water Temperature
  • Satellite Maps
  • Weather Map
  • News
  • Weather Widgets
  • user-avatar
    Login

    Hourly Weather Myczkowce

    Today, 20 August, Monday

    Time Temperature Precipitation Wind Pressure Humidity
    00:00 +19°C° 0 mm 1 mps 732 mmHg 86%
    01:00 +18°C° 0 mm 1 mps 732 mmHg 88%
    02:00 +18°C° 0 mm 1 mps 731 mmHg 87%
    03:00 +18°C° 0 mm 1 mps 731 mmHg 87%
    04:00 +18°C° 0 mm 1 mps 731 mmHg 87%
    05:00 +20°C° 0 mm 1 mps 731 mmHg 82%
    06:00 +21°C° 0 mm 1 mps 731 mmHg 77%
    07:00 +23°C° 0 mm 1 mps 731 mmHg 70%
    08:00 +25°C° 0 mm 1 mps 732 mmHg 64%
    09:00 +27°C° 0 mm 1 mps 732 mmHg 57%
    10:00 +29°C° 0 mm 1 mps 732 mmHg 51%
    11:00 +30°C° 0 mm 1 mps 731 mmHg 48%
    12:00 +30°C° 0 mm 1 mps 731 mmHg 45%
    13:00 +31°C° 0 mm 1 mps 731 mmHg 42%
    14:00 +31°C° 0 mm 1 mps 731 mmHg 44%
    15:00 +30°C° 0 mm 1 mps 730 mmHg 46%
    16:00 +30°C° 0 mm 1 mps 730 mmHg 48%
    17:00 +28°C° 0 mm 1 mps 730 mmHg 55%
    18:00 +25°C° 0 mm 1 mps 730 mmHg 61%
    19:00 +23°C° 0 mm 1 mps 729 mmHg 68%
    20:00 +23°C° 0 mm 1 mps 729 mmHg 69%
    21:00 +22°C° 0 mm 1 mps 730 mmHg 70%
    22:00 +21°C° 0 mm 1 mps 730 mmHg 72%
    23:00 +21°C° 0 mm 1 mps 730 mmHg 73%

    Tomorrow, 21 August, Tuesday

    Time Temperature Precipitation Wind Pressure Humidity
    00:00 +21°C° 0 mm 1 mps 730 mmHg 74%
    01:00 +20°C° 0 mm 1 mps 730 mmHg 76%
    02:00 +20°C° 0 mm 1 mps 730 mmHg 78%
    03:00 +19°C° 0 mm 1 mps 730 mmHg 81%
    04:00 +18°C° 0 mm 2 mps 730 mmHg 84%
    05:00 +19°C° 0 mm 2 mps 731 mmHg 82%
    06:00 +20°C° 0 mm 2 mps 731 mmHg 81%
    07:00 +20°C° 0 mm 2 mps 731 mmHg 79%
    08:00 +23°C° 0 mm 2 mps 732 mmHg 75%
    09:00 +24°C° 0 mm 3 mps 732 mmHg 71%
    10:00 +25°C° 0 mm 3 mps 732 mmHg 66%
    11:00 +25°C° 0.2 mm 3 mps 732 mmHg 67%
    12:00 +25°C° 0.2 mm 3 mps 732 mmHg 67%
    13:00 +25°C° 0.2 mm 3 mps 732 mmHg 67%
    14:00 +25°C° 0 mm 3 mps 732 mmHg 67%
    15:00 +25°C° 0 mm 3 mps 732 mmHg 66%
    16:00 +25°C° 0 mm 3 mps 732 mmHg 65%
    17:00 +23°C° 0 mm 2 mps 732 mmHg 71%
    18:00 +20°C° 0 mm 2 mps 732 mmHg 77%
    19:00 +20°C° 0 mm 1 mps 732 mmHg 84%
    20:00 +19°C° 0 mm 1 mps 732 mmHg 85%
    21:00 +18°C° 0 mm 1 mps 732 mmHg 86%
    22:00 +18°C° 0 mm 1 mps 733 mmHg 87%
    23:00 +16°C° 0 mm 1 mps 733 mmHg 87%

    Day after tomorrow, 22 August, Wednesday

    Time Temperature Precipitation Wind Pressure Humidity
    00:00 +16°C° 0 mm 1 mps 733 mmHg 87%
    01:00 +15°C° 0 mm 1 mps 733 mmHg 88%
    02:00 +15°C° 0 mm 1 mps 733 mmHg 87%
    03:00 +14°C° 0 mm 1 mps 733 mmHg 87%
    04:00 +14°C° 0 mm 1 mps 733 mmHg 87%
    05:00 +15°C° 0 mm 1 mps 733 mmHg 82%
    06:00 +16°C° 0 mm 1 mps 733 mmHg 77%
    07:00 +19°C° 0 mm 1 mps 733 mmHg 72%
    08:00 +19°C° 0 mm 2 mps 734 mmHg 66%
    09:00 +21°C° 0 mm 2 mps 734 mmHg 60%
    10:00 +22°C° 0 mm 3 mps 734 mmHg 55%
    11:00 +24°C° 0 mm 3 mps 734 mmHg 54%
    12:00 +25°C° 0 mm 3 mps 733 mmHg 53%
    13:00 +25°C° 0 mm 3 mps 733 mmHg 52%
    14:00 +25°C° 0 mm 3 mps 733 mmHg 55%
    15:00 +25°C° 0 mm 3 mps 733 mmHg 58%
    16:00 +25°C° 0 mm 3 mps 732 mmHg 60%
    17:00 +22°C° 0 mm 3 mps 732 mmHg 68%
    18:00 +20°C° 0 mm 2 mps 732 mmHg 76%
    19:00 +18°C° 0 mm 2 mps 732 mmHg 84%
    20:00 +17°C° 0 mm 2 mps 732 mmHg 87%
    21:00 +16°C° 0 mm 2 mps 732 mmHg 89%
    22:00 +16°C° 0 mm 2 mps 732 mmHg 91%
    23:00 +15°C° 0 mm 1 mps 732 mmHg 92%

    23 August, Thursday

    Time Temperature Precipitation Wind Pressure Humidity
    00:00 +15°C° 0 mm 1 mps 732 mmHg 92%
    01:00 +15°C° 0 mm 1 mps 732 mmHg 93%
    02:00 +15°C° 0 mm 1 mps 732 mmHg 93%
    03:00 +14°C° 0 mm 1 mps 731 mmHg 94%
    04:00 +14°C° 0 mm 1 mps 731 mmHg 94%
    05:00 +16°C° 0 mm 1 mps 731 mmHg 89%
    06:00 +19°C° 0 mm 1 mps 731 mmHg 84%
    07:00 +20°C° 0 mm 1 mps 731 mmHg 79%
    08:00 +23°C° 0 mm 1 mps 731 mmHg 70%
    09:00 +25°C° 0 mm 1 mps 731 mmHg 62%
    10:00 +27°C° 0 mm 1 mps 731 mmHg 54%
    11:00 +28°C° 0 mm 1 mps 731 mmHg 51%
    12:00 +29°C° 0 mm 1 mps 731 mmHg 49%
    13:00 +29°C° 0 mm 1 mps 731 mmHg 46%
    14:00 +29°C° 0 mm 1 mps 730 mmHg 49%
    15:00 +29°C° 0 mm 1 mps 730 mmHg 52%
    16:00 +28°C° 0 mm 1 mps 730 mmHg 55%
    17:00 +26°C° 0 mm 1 mps 730 mmHg 62%
    18:00 +24°C° 0 mm 1 mps 729 mmHg 69%
    19:00 +22°C° 0 mm 1 mps 729 mmHg 76%
    20:00 +22°C° 0 mm 1 mps 729 mmHg 78%
    21:00 +21°C° 0 mm 1 mps 729 mmHg 79%
    22:00 +20°C° 0 mm 1 mps 729 mmHg 80%
    23:00 +20°C° 0 mm 1 mps 729 mmHg 79%

    24 August, Friday

    Time Temperature Precipitation Wind Pressure Humidity
    00:00 +20°C° 0 mm 1 mps 729 mmHg 78%
    01:00 +20°C° 0 mm 1 mps 729 mmHg 77%
    02:00 +20°C° 0 mm 1 mps 729 mmHg 77%
    03:00 +19°C° 0 mm 2 mps 729 mmHg 76%
    04:00 +19°C° 0 mm 2 mps 728 mmHg 76%
    05:00 +20°C° 0 mm 2 mps 728 mmHg 73%
    06:00 +21°C° 0 mm 2 mps 729 mmHg 71%
    07:00 +23°C° 0 mm 2 mps 729 mmHg 69%
    08:00 +25°C° 0 mm 2 mps 729 mmHg 64%
    09:00 +27°C° 0 mm 3 mps 729 mmHg 58%
    10:00 +29°C° 0 mm 3 mps 729 mmHg 52%
    11:00 +29°C° 0.1 mm 3 mps 728 mmHg 51%
    12:00 +30°C° 0.1 mm 3 mps 728 mmHg 50%
    13:00 +30°C° 0.1 mm 3 mps 728 mmHg 49%
    14:00 +30°C° 0.1 mm 2 mps 727 mmHg 52%
    15:00 +29°C° 0.1 mm 2 mps 727 mmHg 55%
    16:00 +29°C° 0.1 mm 2 mps 727 mmHg 58%
    17:00 +27°C° 0.1 mm 2 mps 727 mmHg 63%
    18:00 +25°C° 0.1 mm 2 mps 727 mmHg 68%
    19:00 +23°C° 0.1 mm 2 mps 726 mmHg 72%
    20:00 +21°C° 0.7 mm 2 mps 726 mmHg 77%
    21:00 +21°C° 0.7 mm 1 mps 726 mmHg 82%
    22:00 +20°C° 0.7 mm 1 mps 726 mmHg 87%
    23:00 +20°C° 0.9 mm 1 mps 726 mmHg 87%

    25 August, Saturday

    Time Temperature Precipitation Wind Pressure Humidity
    00:00 +20°C° 0.9 mm 1 mps 726 mmHg 88%
    01:00 +20°C° 0.9 mm 1 mps 726 mmHg 89%
    02:00 +19°C° 0.4 mm 1 mps 725 mmHg 89%
    03:00 +19°C° 0.4 mm 1 mps 725 mmHg 90%
    04:00 +19°C° 0.4 mm 1 mps 725 mmHg 90%
    05:00 +20°C° 0 mm 1 mps 725 mmHg 88%
    06:00 +21°C° 0 mm 1 mps 725 mmHg 87%
    07:00 +22°C° 0 mm 1 mps 725 mmHg 86%
    08:00 +23°C° 0.1 mm 2 mps 725 mmHg 78%
    09:00 +25°C° 0.1 mm 3 mps 725 mmHg 69%
    10:00 +27°C° 0.1 mm 3 mps 725 mmHg 61%
    11:00 +26°C° 0.9 mm 4 mps 725 mmHg 66%
    12:00 +25°C° 0.9 mm 5 mps 725 mmHg 71%
    13:00 +23°C° 0.9 mm 5 mps 725 mmHg 75%
    14:00 +21°C° 0.9 mm 5 mps 725 mmHg 80%
    15:00 +19°C° 0.9 mm 5 mps 725 mmHg 84%
    16:00 +16°C° 0.9 mm 5 mps 726 mmHg 88%
    17:00 +15°C° 0.3 mm 4 mps 726 mmHg 89%
    18:00 +16°C° 0.3 mm 3 mps 726 mmHg 91%
    19:00 +14°C° 0.3 mm 3 mps 727 mmHg 92%
    20:00 +14°C° 0.1 mm 2 mps 727 mmHg 93%
    21:00 +14°C° 0.1 mm 2 mps 727 mmHg 93%
    22:00 +13°C° 0.1 mm 2 mps 727 mmHg 94%
    23:00 +13°C° 0 mm 2 mps 727 mmHg 94%
    Show more